EW6754 Weather Reports


Display with metric or nautical units.
time (UTC)temp
F
wind
direction
speed
MPH
gust
MPH
rain 1hr
in
rain 24hr
in
rain mn
in
humidity
%
barometer
mb
20260509041551 77 92 0.0 0.0 0.00 0.00 0.00 82 1014.9
20260509040034 77 94 0.0 0.0 0.00 0.00 0.00 82 1015.1
20260509034539 77 163 0.0 0.0 0.00 0.00 0.00 82 1015.1
20260509033032 77 150 0.0 0.0 0.00 0.00 0.00 82 1015.1
20260509031531 77 174 0.0 0.0 0.00 0.00 0.00 81 1015.1
20260509030031 77 102 0.0 0.0 0.00 0.00 0.00 81 1015.3
20260509024530 77 233 0.0 0.0 0.00 0.00 0.00 81 1015.4
20260509023028 77 182 0.0 0.0 0.00 0.00 0.00 81 1015.3
20260509021527 78 155 0.0 0.0 0.00 0.00 0.00 81 1015.2
20260509020026 78 220 0.0 0.0 0.00 0.00 0.00 81 1015.1
20260509014525 78 224 0.0 0.0 0.00 0.00 0.00 81 1015.0
20260509013025 79 199 0.0 0.0 0.00 0.00 0.00 79 1014.7
20260509011529 79 172 0.0 0.0 0.00 0.00 0.00 78 1014.7
20260509010038 80 105 0.0 0.0 0.00 0.00 0.00 77 1014.6
20260509004527 80 111 0.0 0.0 0.00 0.00 0.00 77 1014.4
20260509003022 80 122 0.0 0.0 0.00 0.00 0.00 76 1014.3
20260509001521 80 102 0.0 0.0 0.00 0.00 0.00 75 1014.0
20260509000020 81 103 0.0 0.0 0.00 0.00 0.00 74 1013.8
20260508234523 81 127 0.0 0.0 0.00 0.00 0.00 75 1013.6
20260508233017 81 107 0.0 0.0 0.00 0.00 0.00 75 1013.4
20260508231515 81 120 0.0 0.0 0.00 0.00 0.00 75 1013.2
20260508230023 82 113 0.0 0.0 0.00 0.00 0.00 74 1013.1
20260508224510 82 106 0.0 0.0 0.00 0.00 0.00 74 1013.0
20260508223005 83 132 0.0 0.0 0.00 0.00 0.00 72 1012.7
20260508221501 84 113 0.0 0.0 0.00 0.00 0.00 70 1012.6
20260508220059 84 150 0.0 0.0 0.00 0.00 0.00 68 1012.4
20260508214602 85 106 0.0 0.0 0.00 0.00 0.00 65 1012.3
20260508213053 85 94 0.0 0.0 0.00 0.00 0.00 64 1012.2
20260508211553 85 111 0.0 0.0 0.00 0.00 0.00 62 1011.9
20260508210052 86 103 0.0 0.0 0.00 0.00 0.00 61 1011.8
20260508204551 86 102 0.0 6.0 0.00 0.00 0.00 58 1011.9
20260508203051 87 74 0.0 5.0 0.00 0.00 0.00 57 1011.9
20260508201551 88 98 0.0 2.0 0.00 0.00 0.00 55 1011.8
20260508200056 89 107 0.0 0.0 0.00 0.00 0.00 53 1011.9
20260508194547 89 51 0.0 8.0 0.00 0.00 0.00 50 1012.0
20260508193050 89 122 0.0 0.0 0.00 0.00 0.00 52 1012.1
20260508191553 90 145 0.0 9.0 0.00 0.00 0.00 50 1012.2
20260508190045 90 90 3.0 21.0 0.00 0.00 0.00 51 1012.0
20260508184542 90 101 0.0 8.0 0.00 0.00 0.00 49 1012.4
20260508183038 90 132 0.0 4.0 0.00 0.00 0.00 47 1012.5
20260508181536 90 82 0.0 5.0 0.00 0.00 0.00 50 1012.8
20260508180036 90 82 0.0 0.0 0.00 0.00 0.00 50 1012.8
20260508174538 90 165 0.0 0.0 0.00 0.00 0.00 51 1012.8
20260508173030 90 138 0.0 4.0 0.00 0.00 0.00 51 1013.0
20260508171528 89 91 0.0 2.0 0.00 0.00 0.00 53 1013.2
20260508170027 89 148 0.0 8.0 0.00 0.00 0.00 54 1013.3
20260508164532 89 214 0.0 8.0 0.00 0.00 0.00 55 1013.5
20260508163024 89 104 0.0 1.0 0.00 0.00 0.00 56 1013.7
20260508161523 89 110 0.0 7.0 0.00 0.00 0.00 55 1013.8
20260508160027 89 77 0.0 3.0 0.00 0.00 0.00 54 1014.0
20260508154524 88 128 0.0 0.0 0.00 0.00 0.00 57 1014.1
20260508153019 88 138 0.0 5.0 0.00 0.00 0.00 57 1014.2
20260508151518 88 91 0.0 2.0 0.00 0.00 0.00 55 1014.3
20260508150016 87 150 0.0 0.0 0.00 0.00 0.00 58 1014.4
20260508144513 87 81 0.0 0.0 0.00 0.00 0.00 58 1014.5
20260508143012 86 57 0.0 6.0 0.00 0.00 0.00 56 1014.6
20260508141510 86 98 0.0 0.0 0.00 0.00 0.00 59 1014.8
20260508140007 85 68 0.0 0.0 0.00 0.00 0.00 61 1014.9
20260508134505 84 65 0.0 0.0 0.00 0.00 0.00 64 1014.9
20260508133001 84 142 0.0 0.0 0.00 0.00 0.00 69 1014.7
20260508131602 83 109 0.0 0.0 0.00 0.00 0.00 71 1014.9
20260508130110 82 111 0.0 0.0 0.00 0.00 0.00 73 1014.9
20260508124554 82 105 0.0 0.0 0.00 0.00 0.00 73 1014.8
20260508123100 81 108 0.0 5.0 0.00 0.00 0.00 74 1014.8
20260508121601 81 143 0.0 0.0 0.00 0.00 0.00 74 1014.9
20260508120049 80 102 0.0 0.0 0.00 0.00 0.00 75 1014.9
20260508114546 79 222 0.0 0.0 0.00 0.00 0.00 80 1014.8
20260508113046 78 213 0.0 0.0 0.00 0.00 0.00 81 1014.7
20260508111542 76 205 0.0 0.0 0.00 0.00 0.00 82 1014.7
20260508110041 75 184 0.0 0.0 0.00 0.00 0.00 82 1014.6
20260508104608 74 152 0.0 0.0 0.00 0.00 0.00 80 1014.5
20260508103045 72 186 0.0 0.0 0.00 0.00 0.00 70 1014.6
20260508101541 71 237 0.0 0.0 0.00 0.00 0.00 70 1014.4
20260508100038 71 225 0.0 0.0 0.00 0.00 0.00 71 1014.2
20260508094544 71 225 0.0 0.0 0.00 0.00 0.00 69 1014.1
20260508093037 72 172 0.0 0.0 0.00 0.00 0.00 71 1014.2
20260508091535 72 150 0.0 0.0 0.00 0.00 0.00 71 1014.1
20260508090036 72 150 0.0 0.0 0.00 0.00 0.00 70 1014.1
20260508084534 72 150 0.0 0.0 0.00 0.00 0.00 71 1013.9
20260508083039 72 150 0.0 0.0 0.00 0.00 0.00 72 1013.8
20260508081535 72 174 0.0 0.0 0.00 0.00 0.00 74 1013.7
20260508080030 73 174 0.0 0.0 0.00 0.00 0.00 73 1013.8
20260508074532 73 162 0.0 0.0 0.00 0.00 0.00 74 1013.8
20260508073029 73 231 0.0 0.0 0.00 0.00 0.00 74 1013.9
20260508071528 73 230 0.0 0.0 0.00 0.00 0.00 73 1013.7
20260508070034 73 160 0.0 0.0 0.00 0.00 0.00 75 1013.8
20260508064529 74 136 0.0 0.0 0.00 0.00 0.00 76 1014.1
20260508063025 74 191 0.0 0.0 0.00 0.00 0.00 75 1014.1
20260508061520 74 191 0.0 0.0 0.00 0.00 0.00 76 1014.1
20260508060018 74 191 0.0 0.0 0.00 0.00 0.00 76 1014.3
20260508054515 74 239 0.0 0.0 0.00 0.00 0.00 76 1014.3
20260508053015 74 216 0.0 0.0 0.00 0.00 0.00 77 1014.5
20260508051510 75 197 0.0 0.0 0.00 0.00 0.00 77 1014.6
20260508050008 75 219 0.0 0.0 0.00 0.01 0.00 77 1014.6
20260508044507 76 188 0.0 0.0 0.00 0.01 0.00 79 1014.7
20260508043004 76 234 0.0 0.0 0.00 0.01 0.00 79 1014.9